Location: Plainartige
(45.6866°N, 1.7993°E)
Time: 16:39:32
(UTC+00:00)

Tiros 1 - Pass Details

Date: 27 May 2022
Orbit: 629 x 663 km, 48.4° (Epoch: 05 July)

Event Time Altitude Azimuth Distance (km) Brightness Sun altitude
Exits shadow 01:20:09 40° 244° (WSW) 928 7.6 -20.0°
Maximum altitude 01:21:47 85° 158° (SSE) 641 7.0 -19.9°
Drops below altitude 10° 01:26:27 10° 71° (ENE) 2,028 10.3 -19.5°
Sets 01:28:48 0° 71° (ENE) 2,944 11.2 -19.4°
